Weather in Sidmouth

United Kingdom     50°41′30″N   3°14′36″W
В апреле 2022 года жителям России запретили посещать сайт meteo.paraplan.net по решению Генеральной прокуратуры. Аудитория сайта уменьшилась в 10 раз. Владельцы сайта не видят смысла в поддержке погодного сервера в таких условиях. Сайт будет закрыт в октябре.
temp.,
°C
wind,
m/s
gust,
m/s
humid.,
%
clouds,
%
prec.,
mm/h
press.,
hPa
HPBL,
m
4 october, tue
tue401:00+12sw339713 0.1 101981
04:00+13sw4794100 0.0 1018292
07:00+14ssw41092100 0.0 1017490
10:00+16ssw61186100 0.0 1017671
13:00+18sw81173100 0.0 1016972
16:00+17ssw81280100 0.0 1015891
19:00+15ssw71490100 0.0 1015660
22:00+15ssw71492100 0.0 1014638
5 october, wed
wed501:00+15ssw81592100 0.0 1012719
04:00+16ssw91792100 0.0 1009769
07:00+16ssw101892100 0.0 1008902
10:00+16sw101688100 0.3 10081298
13:00+14w81480100 0.9 10121113
16:00+14w915750 0.7 10141394
19:00+11w916655 0.7 10181235
22:00+11w814680 0.0 1022945
6 october, thu
thu601:00+9w49770 0.0 1026239
04:00+8wsw34820 0.0 1027115
07:00+8wsw348213 0.0 1029115
10:00+13wsw596655 0.0 1030716
13:00+17sw676077 0.0 10291378
16:00+16sw686657 0.0 10281000
19:00+12sw59884 0.0 1028282
22:00+11sw49958 0.0 1028296
7 october, fri
fri701:00+11sw4109599 0.0 1026380
04:00+12sw5119483 0.0 1024433
07:00+12sw5119478 0.0 1023439
10:00+15sw610799 0.1 1022835
13:00+18wsw811567 0.1 10211540
16:00+17w7116037 0.0 10201373
19:00+13w6119049 0.0 1021568
22:00+11w39945 0.0 1022253
8 october, sat
sat801:00+9w24925 0.0 102374
04:00+9wnw23925 0.0 102348
07:00+8wnw229080 0.0 102431
10:00+12wsw1277100 0.0 1024199
13:00+15ssw2363100 0.0 1024990
16:00+15s4466100 0.0 1022669
19:00+12ssw338492 0.0 1021111
22:00+12s3390100 0.0 1020131